Tracking 35035 objects as of 16-Aug-2026
HD Live streaming from Space Station
objects crossing your sky now

STARLINK-35520

Track STARLINK-35520 now!
10-day predictions
STARLINK-35520 is classified as:


NORAD ID: 66133
Int'l Code: 2025-237V
Launch date: October 22, 2025
Source: United States (US)
Launch site: AIR FORCE WESTERN TEST RANGE (AFWTR)
Your satellite tracking list
Your tracking list is empty




NASA's NSSDC Master Catalog

Two Line Element Set (TLE):
1 66133U 25237V   26227.80418959  .00011903  00000-0  36279-3 0  9995
2 66133  53.1617  18.2852 0001089  84.1701 275.9426 15.34404766 47005
Source of the keplerian elements: AFSPC